User: anonymous
Location: Mentone
(34.5413°N, 85.5351°W)
Time: 07:57:46
(UTC-05:00)
Language:

ADEOS Rocket - Orbit

View from above orbital plane
View from above orbital plane
View from above satellite
View from above satellite

Ground track
Ground track

The orbit data is extracted from the following two-line orbital elements,

1 24279U 96046C   14106.19078137  .00000016  00000-0  66456-4 0  6464
2 24279 098.7514 181.4738 0299960 003.0533 047.4365 13.46974108868342
Epoch (UTC): 16 April 2014 04:34:43
Eccentricity: 0.0299960
inclination: 98.7514°
perigee height: 859 km
apogee height: 1307 km
right ascension of ascending node: 181.4738°
argument of perigee: 3.0533°
revolutions per day: 13.46974108
mean anomaly at epoch: 47.4365°
orbit number at epoch: 86834

The dashed part of the orbit path shows where the satellite is in the earth's shadow,  

DLR